Location: Unspecified
(0.0000°N, 0.0000°E)
Time: 14:02:09
(UTC+00:00)

Hubble Space Telescope - Pass Details

Date: 14 April 2021
Orbit: 535 x 539 km, 28.5° (Epoch: 16 April)

Event Time Altitude Azimuth Distance (km) Brightness Sun altitude
Rises 18:20:16 0° 232° (SW) 2,675 5.0 -5.0°
Reaches altitude 10° 18:22:35 10° 228° (SW) 1,783 4.0 -5.5°
Maximum altitude 18:26:37 54° 150° (SSE) 650 1.0 -6.5°
Drops below altitude 10° 18:30:38 10° 72° (ENE) 1,776 2.9 -7.5°
Enters shadow 18:31:27 - 70° (ENE) 2,085 3.2 -7.7°
